LEMUR-2-LLOYD (60577 NORAD) Tracking and Keplerian Element Data

This shows tracking and keplerian element data for the satellite.

Feedback or suggestion? Click here.




ElementValue
Catalog60577
NameLEMUR-2-LLOYD
Epoch Orbit839
Epoch Day286.1661602
Epoch Year2024
RAAN0.6826
Inclination97.7423
Eccentricity0.0002922
Argument of Perigee53.0793
Mean Anonmoly307.0694
Mean Motion14.92992726
Decay Rate0.00025631
L11 60577U 24149DP 24286.16616020 .00025631 00000+0 24637-2 0 9999
L22 60577 97.7423 0.6826 0002922 53.0793 307.0694 14.92992726 8393



Live tracking and technical data element details for LEMUR-2-LLOYD (NORAD 60577). LEMUR-2-LLOYD can be tracked NOW for your location showing map with azimuth and elevation plus other details from your city location.







IsCatalogInMostPopularTable: catalog: 60577, numindb: 4
Update: records affected: 1



GetName: 60577 LEMUR-2-LLOYD

Hit Count: updated at: Tue, 03 Dec 2024 03:20:40 GMT